Winter Haven, FL

8:06 AM EDT on August 21, 2018 (GMT -0400)
Winter Haven's-Gilbert

Weather History for KGIF - June, 2018

Change the Weather History Date:

Thursday, June 14, 2018

  Actual Average Record
Temperature  
Mean Temperature 80 °F -  
Max Temperature 90 °F 91 °F 99 °F (1977)
Min Temperature 73 °F 69 °F 60 °F (1990)
Cooling Degree Days 16    
Growing Degree Days 30 (Base 50)    
Moisture  
Dew Point 72 °F    
Average Humidity 77    
Maximum Humidity 97    
Minimum Humidity 53    
Precipitation  
Precipitation 0.00 in - - ()
Sea Level Pressure  
Sea Level Pressure 30.07 in    
Wind  
Wind Speed 3 mph (WSW)    
Max Wind Speed 9 mph    
Max Gust Speed -    
Visibility 10 miles    
Events Thunderstorm    
Averages and records for this station are not official NWS values.
T = Trace of Precipitation, MM = Missing Value Source: NWS Daily Summary

Daily Weather History Graph

Daily Weather History Graph

Search for Another Location

Airport or City:

Astronomy

Jun. 14, 2018 Rise Set
Actual Time 6:30 AM EDT 8:24 PM EDT
Civil Twilight 6:03 AM EDT 8:51 PM EDT
Nautical Twilight 5:31 AM EDT 9:23 PM EDT
Astronomical Twilight 4:56 AM EDT 9:57 PM EDT
Moon 7:21 AM EDT (6/14) 9:27 PM EDT (6/14)
Length of Visible Light 14h 48m
Length of Day
13h 54m
New Moon, 1% of the Moon is Illuminated
Jun 14
New Moon
Jun 20
First Quarter
Jun 28
Full
Jul 6
Last Quarter
Jul 12
New

Hourly Weather History & Observations

Time (EDT) Temp. Heat Index Dew Point Humidity Pressure Visibility Wind Dir Wind Speed Gust Speed Precip Events Conditions
12:53 AM 73.9 °F - 73.0 °F 97% 30.09 in 10.0 mi ESE 3.5 mph - N/A   Clear
1:53 AM 73.9 °F - 73.0 °F 97% 30.07 in 10.0 mi South 6.9 mph - N/A   Clear
2:53 AM 73.9 °F - 72.0 °F 93% 30.06 in 10.0 mi SSW 5.8 mph - N/A   Clear
3:53 AM 73.0 °F - 72.0 °F 96% 30.05 in 10.0 mi Calm Calm - N/A   Clear
4:53 AM 73.0 °F - 72.0 °F 96% 30.06 in 10.0 mi Calm Calm - N/A   Clear
5:53 AM 73.0 °F - 72.0 °F 96% 30.07 in 10.0 mi Calm Calm - N/A   Clear
6:53 AM 73.9 °F - 72.0 °F 93% 30.09 in 10.0 mi Calm Calm - N/A   Clear
7:53 AM 75.0 °F - 73.0 °F 94% 30.10 in 10.0 mi Calm Calm - N/A   Clear
8:53 AM 79.0 °F - 73.0 °F 82% 30.12 in 10.0 mi Calm Calm - N/A   Clear
9:53 AM 82.0 °F 86.7 °F 72.0 °F 71% 30.12 in 10.0 mi North 5.8 mph - N/A   Clear
10:53 AM 84.0 °F 90.2 °F 73.0 °F 69% 30.12 in 10.0 mi North 3.5 mph - N/A   Clear
11:53 AM 86.0 °F 92.2 °F 72.0 °F 63% 30.12 in 10.0 mi Variable 4.6 mph - N/A   Clear
12:53 PM 88.0 °F 93.8 °F 71.1 °F 57% 30.10 in 10.0 mi North 6.9 mph - N/A   Partly Cloudy
1:53 PM 88.0 °F 93.8 °F 71.1 °F 57% 30.08 in 10.0 mi Calm Calm - N/A   Partly Cloudy
2:53 PM 88.0 °F 92.1 °F 69.1 °F 53% 30.06 in 10.0 mi Variable 4.6 mph - N/A   Partly Cloudy
3:53 PM 87.1 °F 91.3 °F 69.1 °F 55% 30.04 in 10.0 mi South 4.6 mph - N/A   Mostly Cloudy
4:00 PM 87.1 °F 91.3 °F 69.1 °F 55% 30.05 in 10.0 mi SSW 5.8 mph - N/A Thunderstorm Mostly Cloudy
4:53 PM 80.1 °F 83.8 °F 72.0 °F 76% 30.03 in 10.0 mi NW 5.8 mph - 0.00 in   Overcast
5:53 PM 82.9 °F 89.4 °F 73.9 °F 74% 30.03 in 10.0 mi SW 9.2 mph - N/A   Clear
6:53 PM 84.9 °F 90.7 °F 72.0 °F 65% 30.03 in 10.0 mi SSW 8.1 mph - N/A   Clear
7:53 PM 84.0 °F 89.6 °F 72.0 °F 67% 30.05 in 10.0 mi WSW 4.6 mph - N/A   Clear
8:53 PM 79.0 °F - 72.0 °F 79% 30.05 in 10.0 mi WNW 4.6 mph - N/A   Clear
9:53 PM 79.0 °F - 70.0 °F 74% 30.07 in 10.0 mi Calm Calm - N/A   Clear
10:53 PM 79.0 °F - 71.1 °F 77% 30.10 in 10.0 mi Calm Calm - N/A   Clear
11:53 PM 78.1 °F - 71.1 °F 79% 30.10 in 10.0 mi SSW 3.5 mph - N/A   Clear